Regional Weather Roundup
Issued by NWS

Home | Current Version | Previous Version | Graphics & Text | Print | Product List | Glossary On
Versions: 1 2 3 4 5 6 7 8 9 10 11 12 13 14 15 16 17 18 19 20 21 22 23 24 25 26 27 28 29 30 31 32 33 34 35 36 37 38 39 40 41 42 43 44 45 46 47 48 49 50
000
ASUS43 KMPX 031201
RWRMN
WEATHER ROUNDUP FOR MINNESOTA
NATIONAL WEATHER SERVICE TWIN CITIES/CHANHASSEN MN
700 AM CDT SUN MAY 03 2015


NOTE: "FAIR" INDICATES FEW OR NO CLOUDS BELOW 12,000 FEET WITH NO
SIGNIFICANT WEATHER AND/OR OBSTRUCTIONS TO VISIBILITY. N/A MEANS
CURRENT SKY AND/OR WEATHER CONDITIONS ARE NOT AVAILABLE.

MNZ060>063-068>070-031300-
   Twin Cities Metro

CITY           SKY/WX    TMP DP  RH WIND       PRES   REMARKS
TWIN CITIES    CLOUDY    58  50  75 E3        29.77F
6HR MIN TEMP:  56; 6HR MAX TEMP:  66;

ST PAUL        CLOUDY    56  50  80 S3        29.79S
CRYSTAL        CLOUDY    57  51  80 SE7       29.75S
BLAINE         CLOUDY    55  52  88 SE6       29.77S
LAKEVILLE      CLOUDY    50  48  93 CALM      29.77S
EDEN PRAIRIE   CLOUDY    56  50  80 E3        29.76S
6HR MIN TEMP:  54; 6HR MAX TEMP:  63;

SOUTH ST PAUL  CLOUDY    56  49  79 SE3       29.77F
LAKE ELMO      FAIR      54  50  87 E6        29.79F
$$
MNZ001>005-007-008-013>017-022>024-027-028-031300-
   Northwest Minnesota

CITY           SKY/WX    TMP DP  RH WIND       PRES   REMARKS
BEMIDJI        PTCLDY    51  47  83 NW7       29.73R
HALLOCK        PTCLDY    46  37  71 NW6       29.76R
ROSEAU         MOCLDY    48  41  76 CALM      29.73R
WARROAD        MOCLDY    46  43  87 SW3       29.72R
THIEF RVR FALL MOCLDY    46  41  81 W9        29.75R
CROOKSTON      MOCLDY    45  41  87 NW5       29.77R
MOORHEAD       PTCLDY    46  41  81 N3        29.77R
PARK RAPIDS    CLEAR     52  47  83 SE6       29.74R
MAHNOMEN       FAIR      46  43  91 CALM      29.74R
$$
MNZ006-009>011-018-025>026-031300-
   North Central Minnesota

CITY           SKY/WX    TMP DP  RH WIND       PRES   REMARKS
BAUDETTE       PTCLDY    46  42  86 NW7       29.70R
FLAG ISLAND    MOCLDY    46  43  87 NW12      29.69R
INTL FALLS     CLEAR     49  41  74 W6        29.66S
6HR MIN TEMP:  40; 6HR MAX TEMP:  62; 6HR PCP: TRACE;

WASKISH        PTCLDY    54  48  82 SW8       29.72R
BIG FORK       CLEAR     55  46  71 CALM      29.72R
LONGVILLE      PTCLDY    57  52  82 SW3       29.73R
GRAND RAPIDS   CLEAR     61  46  59 W3        29.73R
CRANE LAKE     MOSUNNY   46  43  87 SW3       29.69R
COOK           MOSUNNY   57  45  62 SW5       29.71R
WALKER         FAIR      57  49  75 W6        29.72R
$$
MNZ012-019>021-037-031300-
   Northeast Minnesota

CITY           SKY/WX    TMP DP  RH WIND       PRES   REMARKS
DULUTH         CLOUDY    62  50  64 SW15      29.72R
6HR MIN TEMP:  51; 6HR MAX TEMP:  62; 6HR PCP: TRACE;

ELY            PTSUNNY   57  45  62 SW6       29.70R
HIBBING        PTSUNNY   45  39  79 CALM      29.72R
EVELETH        PTSUNNY   46  45  93 W3        29.73R
DULUTH HARBOR  CLOUDY    57  52  82 SW12      29.71R
TWO HARBORS    CLOUDY    57  52  82 W3        29.69R
SILVER BAY     CLOUDY    48  45  87 CALM      29.69S
GRAND MARAIS     N/A     41  39  93 CALM      29.72R
G MARAIS ARPRT CLOUDY    48  45  87 S3        29.73S
$$
MNZ029>031-032-039>041-046>048-054>057-064-031300-
   West Central Minnesota

CITY           SKY/WX    TMP DP  RH WIND       PRES   REMARKS
FERGUS FALLS   CLEAR     55  50  82 N7        29.74R
WHEATON        CLEAR     52  48  87 CALM      29.73R
MORRIS         PTCLDY    57  54  88 SE9       29.70R
ALEXANDRIA     PTCLDY    59  54  83 S6        29.72R
ELBOW LAKE     FAIR      54  53  94 S6        29.72R
WADENA         CLEAR     50  48  93 N6        29.72R
GLENWOOD       PTCLDY    57  54  88 SE10        N/A
APPLETON       PTCLDY    57  52  82 SE8       29.72R
BENSON         MOCLDY    57  52  82 S10       29.71S
ORTONVILLE     PTCLDY    57  52  82 E8        29.71R
MADISON        PTCLDY    55  50  82 E6        29.71S
WILLMAR        FAIR      57  52  82 E17       29.71F
$$
MNZ033>034-036-042>043-049>051-058-059-031300-
   Central Minnesota

CITY           SKY/WX    TMP DP  RH WIND       PRES   REMARKS
ST CLOUD       MOCLDY    57  53  86 S16       29.72F
6HR MIN TEMP:  57; 6HR MAX TEMP:  64; 6HR PCP:  0.02;

SAUK CENTRE    FAIR      56  53  89 S9        29.71R
PAYNESVILLE    MOCLDY    55  51  86 E7        29.72F
AITKIN         CLEAR     57  50  77 CALM      29.70R
PINE RIVER     CLEAR     52  48  87 CALM      29.76R
BRAINERD       CLEAR     53  51  93 CALM      29.72R
STAPLES        FAIR      54  50  87 CALM      29.72R
LONG PRAIRIE   FAIR      55  52  88 SW3       29.72R
LITTLE FALLS   PTCLDY    55  52  88 SW3       29.72R
LITCHFIELD     MOCLDY    57  54  88 E3        29.76S
BUFFALO        MOCLDY    55  50  83 CALM      29.77S
MAPLE LAKE     MOCLDY    56  52  86 CALM      29.76S
$$
MNZ037-044-045-052-053-031300-
   East Central Minnesota

CITY           SKY/WX    TMP DP  RH WIND       PRES   REMARKS
PRINCETON      MOCLDY    59  54  82 SE8       29.73F
MORA           MOCLDY    55  50  82 SE3       29.73S
CAMBRIDGE      CLOUDY    61  48  63 S14       29.70F
RUSH CITY      CLOUDY    58  51  78 S18       29.70F
MOOSE LAKE     MOCLDY    55  54  94 S5        29.72S
HINCKLEY       FAIR      59  54  82 SE5       29.74R
CLOQUET        PTSUNNY   59  52  77 S8        29.72S
MCGREGOR       PTCLDY    55  52  88 S5        29.72R
$$
MNZ071>073-080-081-089-090-097-098-031300-
   Southwest Minnesota

CITY           SKY/WX    TMP DP  RH WIND       PRES   REMARKS
MONTEVIDEO     PTCLDY    55  52  88 S8        29.73R
GRANITE FALLS  TSTM      54  50  86 N5G20     29.75R
CANBY          PTCLDY    56  52  84 E3        29.72R
MARSHALL       PTCLDY    55  46  71 SE9       29.69F
REDWOOD FALLS  MOCLDY    54  50  86 E8        29.73R
OLIVIA         PTCLDY    52  46  82 E6        29.74R
WINDOM         MOCLDY    55  52  88 S8        29.73S
WORTHINGTON    PTCLDY    52  46  82 S6        29.75S
JACKSON        MOCLDY    55  50  82 S9        29.75S
TRACY          PTCLDY    55  51  87 E8        29.72R
SLAYTON        PTCLDY    54  51  92 CALM      29.74R
$$
MNZ065>067-074>077-082>085-091>093-031300-
   South Central Minnesota

CITY           SKY/WX    TMP DP  RH WIND       PRES   REMARKS
MANKATO        CLOUDY    54  46  76 SE7       29.76R
NEW ULM        CLOUDY    54  52  94 SE6       29.74R
ST JAMES       CLOUDY    57  52  82 S9        29.75R
FAIRMONT       CLOUDY    54  46  76 S10       29.75S
GLENCOE        CLOUDY    55  52  91 E5        29.75F
FARIBAULT      CLOUDY    55  50  82 SE9       29.77S
OWATONNA       CLOUDY    55  48  76 SE7       29.77S
WASECA         CLOUDY    52  46  82 SE6       29.77F
ALBERT LEA     CLOUDY    55  52  88 S6        29.77R
$$
MNZ078>079-086>088-094>096-031300-
   Southeast Minnesota

CITY           SKY/WX    TMP DP  RH WIND       PRES   REMARKS
ROCHESTER      CLOUDY    54  49  83 SE6       29.81R
6HR MIN TEMP:  53; 6HR MAX TEMP:  57;

RED WING       CLOUDY    55  50  82 SE3       29.79S
STANTON        CLOUDY    56  48  76 S5        29.77S
DODGE CENTER   CLOUDY    55  50  82 S12       29.79R
WINONA         PTSUNNY   59  48  67 SE6       29.81R
AUSTIN         CLOUDY    54  48  82 S6        29.78S
PRESTON        CLOUDY    54  48  80 S9        29.80S
$$
ABBREVIATIONS USED IN REMARKS
   TC - TEMPERATURES IN CELSIUS
  WCI - WIND CHILL INDEX
   HX - HEAT INDEX
  VSB - VISIBILITY
$$



USA.gov is the U.S. government's official web portal to all federal, state and local government web resources and services.